2022-098D (53447 NORAD) Tracking and Keplerian Element Data

This shows tracking and keplerian element data for the satellite.

Feedback or suggestion? Click here.




ElementValue
Catalog53447
Name2022-098D
Epoch Orbit1550
Epoch Day325.09607839
Epoch Year2022
RAAN59.5126
Inclination97.5263
Eccentricity0.0009186
Argument of Perigee273.3506
Mean Anonmoly207.9211
Mean Motion15.09658455
Decay Rate4.462E-05
L11 53447U 22098D 22325.09607839 .00004462 00000+0 28092-3 0 9999
L22 53447 97.5263 59.5126 0009186 273.3506 207.9211 15.09658455 15506



Live tracking and technical data element details for 2022-098D (NORAD 53447). 2022-098D can be tracked NOW for your location showing map with azimuth and elevation plus other details from your city location.







IsCatalogInMostPopularTable: catalog: 53447, numindb: 7
Update: records affected: 1



GetName: 53447 2022-098D

Hit Count: updated at: Thu, 08 Dec 2022 19:12:53 GMT